utc_time,unix_time,temp,cond,salinity,tds,chla_rfu,chla_ugl,bga_rfu,bga_ugl,odo,sat,nitrate_um,nitrogen_mg,stage,area,discharge,total_discharge
2020-02-01 00:00:02+00:00,1580515202,16.387,14433.6,10.22,11.23,,,,,10.49,113.98,,,,,,
2020-02-01 00:20:02+00:00,1580516402,16.583,13781.35,9.67,10.67,,,,,10.52,114.42,,,,,,
2020-02-01 00:40:01+00:00,1580517601,16.522,13882.41,9.76,10.77,,,,,10.11,109.87,,,,,,
2020-02-01 01:00:02+00:00,1580518802,16.711,14086.95,9.87,10.88,,,,,10.55,115.18,,,,,,
2020-02-01 01:20:01+00:00,1580520001,16.615,14444.26,10.17,11.18,,,,,9.91,108.13,,,,,,
2020-02-01 01:40:01+00:00,1580521201,16.586,14037.49,9.86,10.87,,,,,9.43,102.71,,,,,,
2020-02-01 02:00:02+00:00,1580522402,16.53,14642.05,10.34,11.35,,,,,9.01,98.23,,,,,,
2020-02-01 02:20:02+00:00,1580523602,16.585,15290.87,10.82,11.84,,,,,7.96,87.21,,,,,,
2020-02-01 02:40:02+00:00,1580524802,16.432,15128.73,10.74,11.76,,,,,9.08,99.09,,,,,,
2020-02-01 03:00:02+00:00,1580526002,16.045,16624.04,12.01,13.04,,,,,9.06,98.85,,,,,,
2020-02-01 03:20:02+00:00,1580527202,15.816,19348.19,14.25,15.25,,,,,7.9,86.94,,,,,,
2020-02-01 03:40:02+00:00,1580528402,15.677,16379.79,11.93,12.95,,,,,7.17,77.54,4.391,-0.82589,,,,
2020-02-01 04:00:01+00:00,1580529601,15.481,16229.68,11.87,12.89,,,,,7.22,77.73,,,,,,
2020-02-01 04:20:01+00:00,1580530801,15.314,17349.86,12.82,13.84,,,,,9.07,97.9,,,,,,
2020-02-01 04:40:01+00:00,1580532001,15.314,17377.65,12.84,13.86,,,,,9.43,101.82,4.376,-0.8261,,,,
2020-02-01 05:00:02+00:00,1580533202,15.316,16508.32,12.14,13.17,,,,,6.55,70.38,,,,,,
2020-02-01 05:20:02+00:00,1580534402,15.288,17321.04,12.8,13.82,,,,,4.84,52.18,,,,,,
2020-02-01 05:40:02+00:00,1580535602,15.272,19193.29,14.32,15.32,,,,,7.95,86.53,,,,,,
2020-02-01 06:00:02+00:00,1580536802,15.309,20431.84,15.32,16.3,,,,,8.42,92.26,,,,,,
2020-02-01 06:20:02+00:00,1580538002,14.699,19962.67,15.17,16.15,,,,,7.65,82.78,,,,,,
2020-02-01 06:40:01+00:00,1580539201,15.017,19814.95,14.92,15.91,,,,,8.76,95.21,,,,,,
2020-02-01 07:00:02+00:00,1580540402,15.142,23625.67,18.03,18.92,,,,,9.2,102.19,,,,,,
2020-02-01 07:20:01+00:00,1580541601,14.919,21800.24,16.6,17.55,,,,,8.39,92.01,,,,,,
2020-02-01 07:40:02+00:00,1580542802,15.319,21137.12,15.89,16.86,,,,,9.93,109.3,,,,,,
2020-02-01 08:00:01+00:00,1580544001,14.689,20345.68,15.49,16.47,,,,,9.26,100.29,,,,,,
2020-02-01 08:20:01+00:00,1580545201,14.866,18250.71,13.7,14.71,,,,,8.93,96.02,,,,,,
2020-02-01 08:40:02+00:00,1580546402,15.414,20152.24,15.05,16.03,,,,,8.92,97.89,,,,,,
2020-02-01 09:00:01+00:00,1580547601,15.382,20824.69,15.61,16.58,,,,,9.29,102.2,,,,,,
2020-02-01 09:20:01+00:00,1580548801,15.137,19496.29,14.62,15.61,,,,,8.59,93.47,,,,,,
2020-02-01 09:40:02+00:00,1580550002,14.387,17119.56,12.93,13.96,,,,,8.84,93.68,,,,,,
2020-02-01 10:00:02+00:00,1580551202,15.152,18553.01,13.84,14.85,,,,,9.41,101.93,,,,,,
2020-02-01 10:20:02+00:00,1580552402,14.98,18646.35,13.98,14.99,,,,,9.69,104.64,,,,,,
2020-02-01 10:40:02+00:00,1580553602,14.869,18005.64,13.49,14.51,,,,,10.13,108.79,79.992,1.02184,,,,
2020-02-01 11:00:02+00:00,1580554802,14.998,19057.08,14.31,15.31,,,,,9.3,100.68,,,,,,
2020-02-01 11:20:02+00:00,1580556002,14.418,18260.53,13.86,14.88,,,,,8.46,90.27,,,,,,
2020-02-01 11:40:02+00:00,1580557202,14.917,19835.23,14.98,15.97,,,,,8.28,89.84,,,,,,
2020-02-01 12:00:02+00:00,1580558402,14.251,18100.04,13.79,14.8,,,,,8.56,90.97,,,,,,
2020-02-01 12:20:02+00:00,1580559602,14.677,18637.56,14.08,15.09,,,,,9.47,101.71,,,,,,
2020-02-01 12:40:02+00:00,1580560802,14.041,18307.47,14.04,15.05,,,,,9.32,98.72,0.257,-0.8838,,,,
2020-02-01 13:00:02+00:00,1580562002,14.081,16148.56,12.23,13.26,,,,,8.76,91.79,,,,,,
2020-02-01 13:20:02+00:00,1580563202,13.911,15927.38,12.1,13.13,,,,,8.45,88.16,,,,,,
2020-02-01 13:40:01+00:00,1580564401,13.913,15713.59,11.93,12.96,,,,,7.97,83.05,,,,,,
2020-02-01 14:00:02+00:00,1580565602,14.213,16068.99,12.13,13.16,,,,,7.78,81.75,,,,,,
2020-02-01 14:20:02+00:00,1580566802,14.459,18717.87,14.23,15.23,,,,,7.98,85.36,,,,,,
2020-02-01 14:40:02+00:00,1580568002,14.273,20308.15,15.62,16.6,,,,,7.24,77.91,,,,,,
2020-02-01 15:00:01+00:00,1580569201,14.545,19742.52,15.04,16.03,,,,,8.64,93.03,,,,,,
2020-02-01 15:20:02+00:00,1580570402,13.874,18107.67,13.93,14.95,,,,,8.91,93.98,,,,,,
2020-02-01 15:40:01+00:00,1580571601,13.881,17155.1,13.13,14.16,,,,,8.4,88.19,,,,,,
2020-02-01 16:00:02+00:00,1580572802,13.475,14586.27,11.13,12.16,,,,,7.16,73.61,,,,,,
2020-02-01 16:20:02+00:00,1580574002,13.106,16044.52,12.46,13.49,,,,,8.87,91.2,,,,,,
2020-02-01 16:40:02+00:00,1580575202,13.151,16528.79,12.85,13.89,,,,,8.32,85.79,,,,,,
2020-02-01 17:00:01+00:00,1580576401,13.006,15743.65,12.24,13.27,,,,,8.56,87.67,,,,,,
2020-02-01 17:20:02+00:00,1580577602,13.027,16366.87,12.76,13.79,,,,,8.59,88.32,,,,,,
2020-02-01 17:40:02+00:00,1580578802,,,,,,,,,,,,,,,,
2020-02-01 18:00:02+00:00,1580580002,13.154,16917.16,13.18,14.21,,,,,8,82.74,,,,,,
2020-02-01 18:20:02+00:00,1580581202,13.001,16309.02,12.72,13.75,,,,,7.72,79.34,,,,,,
2020-02-01 18:40:02+00:00,1580582402,13.231,15425.92,11.9,12.93,,,,,8.47,86.99,,,,,,
2020-02-01 19:00:01+00:00,1580583601,13.361,15918.04,12.27,13.3,,,,,6.89,71.11,,,,,,
2020-02-01 19:20:01+00:00,1580584801,13.428,15594.31,11.98,13.01,,,,,7.32,75.56,,,,,,
2020-02-01 19:40:02+00:00,1580586002,13.891,15991.83,12.16,13.19,,,,,7.36,76.83,,,,,,
2020-02-01 20:00:02+00:00,1580587202,14.03,16074.98,12.19,13.22,,,,,5.97,62.49,,,,,,
2020-02-01 20:20:02+00:00,1580588402,14.27,14501,10.83,11.86,,,,,8.79,91.73,,,,,,
2020-02-01 20:40:01+00:00,1580589601,14.722,17807.5,13.38,14.4,,,,,8.44,90.28,,,,,,
2020-02-01 21:00:01+00:00,1580590801,14.944,16219.69,12.02,13.05,,,,,9.02,96.16,,,,,,
2020-02-01 21:20:02+00:00,1580592002,15.39,16387.18,12.02,13.05,,,,,9.45,101.65,,,,,,
2020-02-01 21:40:02+00:00,1580593202,15.552,15898.42,11.59,12.61,,,,,9.78,105.35,,,,,,
2020-02-01 22:00:01+00:00,1580594401,15.658,17191.76,12.58,13.6,,,,,9.82,106.67,,,,,,
2020-02-01 22:20:02+00:00,1580595602,15.651,19202.16,14.19,15.19,,,,,9.39,103.01,,,,,,
2020-02-01 22:40:02+00:00,1580596802,15.936,17711.55,12.9,13.92,,,,,10.02,109.64,,,,,,
2020-02-01 23:00:01+00:00,1580598001,15.99,16001.36,11.54,12.56,,,,,9.95,108.13,4.304,-0.82711,,,,
2020-02-01 23:20:01+00:00,1580599201,16.081,17800.91,12.93,13.95,,,,,10.09,110.75,154.205,2.1599,,,,
2020-02-01 23:40:02+00:00,1580600402,16.07,17807.78,12.94,13.96,,,,,10.1,110.88,85.709,1.20051,,,,
2020-02-02 00:00:02+00:00,1580601602,16.137,17403.23,12.6,13.62,,,,,10.73,117.66,102.561,1.43654,,,,
2020-02-02 00:20:02+00:00,1580602802,16.149,16755.8,12.08,13.11,,,,,10.87,118.85,75.559,1.05831,,,,
2020-02-02 00:40:02+00:00,1580604002,16.028,16976.98,12.29,13.32,,,,,10.93,119.44,90.742,1.27097,,,,
2020-02-02 01:00:01+00:00,1580605201,15.987,17802.47,12.96,13.98,,,,,11.08,121.45,94.996,1.3306,,,,
2020-02-02 01:20:01+00:00,1580606401,15.883,17790.13,12.98,14,,,,,10.72,117.29,117.09,1.64005,,,,
2020-02-02 01:40:01+00:00,1580607601,15.69,16488.91,12.01,13.04,,,,,11.31,122.52,70.013,0.88203,,,,
2020-02-02 02:00:01+00:00,1580608801,15.581,15948.94,11.62,12.64,,,,,11.24,121.21,69.471,0.77585,,,,
2020-02-02 02:20:01+00:00,1580610001,15.329,17967.83,13.31,14.33,,,,,11.11,120.34,65.395,0.81735,,,,
2020-02-02 02:40:02+00:00,1580611202,15.106,18384.02,13.72,14.73,,,,,10.87,117.49,98.286,1.37668,,,,
2020-02-02 03:00:02+00:00,1580612402,14.979,21701.22,16.5,17.44,,,,,10.76,117.95,86.091,1.20585,,,,
2020-02-02 03:20:02+00:00,1580613602,14.523,24328.3,18.91,19.77,,,,,10.47,115.42,66.414,0.93026,,,,
2020-02-02 03:40:02+00:00,1580614802,14.358,22721.2,17.62,18.54,,,,,10.1,110.14,70.871,0.99264,,,,
2020-02-02 04:00:02+00:00,1580616002,14.206,24582.68,19.28,20.13,,,,,9.56,104.99,71.54,1.00206,,,,
2020-02-02 04:20:02+00:00,1580617202,13.982,21464.23,16.72,17.67,,,,,9.91,106.6,66.017,0.92468,,,,
2020-02-02 04:40:02+00:00,1580618402,13.848,21748.2,17.02,17.96,,,,,9.75,104.76,64.738,0.90677,,,,
2020-02-02 05:00:01+00:00,1580619601,13.755,20770.49,16.23,17.19,,,,,9.55,101.86,66.667,0.93378,,,,
2020-02-02 05:20:02+00:00,1580620802,13.539,20941.89,16.46,17.43,,,,,9.06,96.38,67.199,0.94121,,,,
2020-02-02 05:40:02+00:00,1580622002,13.19,20588.26,16.31,17.28,,,,,9.22,97.29,70.305,0.98477,,,,
2020-02-02 06:00:01+00:00,1580623201,13.059,19806.07,15.69,16.68,,,,,9.35,98.01,50.995,0.51709,,,,
2020-02-02 06:20:01+00:00,1580624401,12.924,21159.98,16.92,17.88,,,,,8.81,92.78,66.63,0.93324,,,,
2020-02-02 06:40:02+00:00,1580625602,12.819,20780.07,16.64,17.6,,,,,8.53,89.41,69.073,0.96749,,,,
2020-02-02 07:00:02+00:00,1580626802,12.574,20926.97,16.87,17.84,,,,,8.86,92.55,69.231,0.96971,,,,
2020-02-02 07:20:02+00:00,1580628002,12.384,20919.2,16.95,17.91,,,,,8.95,93.12,70.583,0.98866,,,,
2020-02-02 07:40:01+00:00,1580629201,12.239,20840.17,16.95,17.91,,,,,8.77,90.98,75.961,1.06397,,,,
2020-02-02 08:00:02+00:00,1580630402,12.078,20145.4,16.4,17.39,,,,,8.74,90.05,71.464,1.00097,,,,
2020-02-02 08:20:01+00:00,1580631601,11.984,20744.01,16.98,17.94,,,,,8.52,87.87,73.785,1.03353,,,,
2020-02-02 08:40:02+00:00,1580632802,11.812,20981.71,17.27,18.23,,,,,8.73,89.94,73.561,1.03038,,,,
2020-02-02 09:00:02+00:00,1580634002,11.681,20673.12,17.05,18.02,,,,,8.55,87.74,70.161,0.98272,,,,
2020-02-02 09:20:02+00:00,1580635202,11.623,20228.03,16.68,17.66,,,,,8.54,87.29,74.458,1.04289,,,,
2020-02-02 09:40:01+00:00,1580636401,11.469,20148.56,16.67,17.66,,,,,8.49,86.47,79.992,1.12043,,,,
2020-02-02 10:00:01+00:00,1580637601,11.31,20833.26,17.37,18.34,,,,,8.19,83.49,78.292,1.09663,,,,
2020-02-02 10:20:01+00:00,1580638801,11.177,20709.19,17.32,18.29,,,,,8.07,82.03,76.701,1.07433,,,,
2020-02-02 10:40:02+00:00,1580640002,10.943,21232.62,17.91,18.87,,,,,7.15,72.56,72.864,1.02058,,,,
2020-02-02 11:00:02+00:00,1580641202,11.12,19922.61,16.63,17.62,,,,,7.72,78.03,75.543,1.05809,,,,
2020-02-02 11:20:02+00:00,1580642402,11.207,21527.38,18.05,19,,,,,7.3,74.52,79.496,1.11346,,,,
2020-02-02 11:40:02+00:00,1580643602,11.122,24812.71,21.14,21.95,,,,,6.81,70.83,77.607,1.08699,,,,
2020-02-02 12:00:02+00:00,1580644802,11.035,22249.2,18.8,19.72,,,,,7.34,75.09,77.879,1.09085,,,,
2020-02-02 12:20:02+00:00,1580646002,11.486,22006.38,18.35,19.28,,,,,5.6,57.63,78.433,1.09858,,,,
2020-02-02 12:40:02+00:00,1580647202,11.464,22160.39,18.5,19.43,,,,,6.93,71.4,83.825,1.1741,,,,
2020-02-02 13:00:01+00:00,1580648401,11.344,22245.92,18.64,19.56,,,,,6.86,70.58,85.395,1.19609,,,,
2020-02-02 13:20:02+00:00,1580649602,11.348,23256.84,19.57,20.45,,,,,5.52,57.09,83.41,1.16832,,,,
2020-02-02 13:40:01+00:00,1580650801,11.414,24255.34,20.46,21.29,,,,,5.82,60.59,86.416,1.21042,,,,
2020-02-02 14:00:02+00:00,1580652002,11.29,22600.77,19,19.9,,,,,5.99,61.71,86.552,1.21229,,,,
2020-02-02 14:20:02+00:00,1580653202,10.99,23445.62,19.94,20.81,,,,,5.31,54.67,81.975,1.14821,,,,
2020-02-02 14:40:02+00:00,1580654402,11.152,25067.95,21.36,22.15,,,,,4.19,43.68,87.268,1.02515,,,,
2020-02-02 15:00:01+00:00,1580655601,11.666,24231.77,20.3,21.13,,,,,4.96,51.92,118.781,1.66375,,,,
2020-02-02 15:20:01+00:00,1580656801,11.074,22620.18,19.12,20.03,,,,,4.58,46.98,124.2,1.73964,,,,
2020-02-02 15:40:01+00:00,1580658001,10.997,21778.43,18.39,19.32,,,,,3.55,36.21,96.211,1.34757,,,,
2020-02-02 16:00:02+00:00,1580659202,11.451,24002.47,20.2,21.05,,,,,4.22,43.95,130.844,1.83272,,,,
2020-02-02 16:20:01+00:00,1580660401,11.374,23953.28,20.2,21.05,,,,,5.09,52.88,117.609,1.64733,,,,
2020-02-02 16:40:02+00:00,1580661602,10.671,23289.64,19.96,20.84,,,,,5.89,60.16,,,,,,
2020-02-02 17:00:02+00:00,1580662802,10.878,23437.05,19.99,20.86,,,,,5.56,57.12,135.203,1.89375,,,,
2020-02-02 17:20:01+00:00,1580664001,10.356,22530.85,19.42,20.33,,,,,6.07,61.37,,,,,,
2020-02-02 17:40:01+00:00,1580665201,10.365,22018.01,18.93,19.86,,,,,4.38,44.22,,,,,,
2020-02-02 18:00:02+00:00,1580666402,7.457,17973.14,16.46,17.57,,,,,7.92,73.44,,,,,,
2020-02-02 18:20:02+00:00,1580667602,7.247,16824,15.41,16.55,,,,,8.41,77.13,,,,,,
2020-02-02 18:40:02+00:00,1580668802,7.419,17467.29,15.97,17.09,,,,,8.07,74.51,,,,,,
2020-02-02 19:00:02+00:00,1580670002,7.154,15356.47,14,15.14,,,,,8.82,79.9,,,,,,
2020-02-02 19:20:02+00:00,1580671202,7.503,16170.02,14.65,15.79,,,,,8.55,78.41,,,,,,
2020-02-02 19:40:01+00:00,1580672401,7.971,16956.24,15.22,16.33,,,,,8.37,77.98,,,,,,
2020-02-02 20:00:01+00:00,1580673601,8.473,17393.85,15.43,16.52,,,,,8.73,82.41,,,,,,
2020-02-02 20:20:02+00:00,1580674802,7.77,14855.67,13.26,14.39,,,,,9.34,85.5,,,,,,
2020-02-02 20:40:02+00:00,1580676002,9.34,16578.36,14.29,15.37,,,,,9.25,88.39,106.528,1.49211,,,,
2020-02-02 21:00:02+00:00,1580677202,10.662,19447.71,16.4,17.41,,,,,9.32,93.03,78.23,1.09576,,,,
2020-02-02 21:20:02+00:00,1580678402,11.242,18855.68,15.61,16.62,,,,,9.88,99.47,74.146,1.03854,,,,
2020-02-02 21:40:02+00:00,1580679602,11.694,20836.88,17.19,18.16,,,,,10.52,108.04,72.972,1.02209,,,,
2020-02-02 22:00:01+00:00,1580680801,12.151,22126.73,18.14,19.06,,,,,10.56,110.1,70.352,0.98542,,,,
2020-02-02 22:20:01+00:00,1580682001,12.458,20559.01,16.6,17.57,,,,,11.57,120.39,75.454,1.05686,,,,
2020-02-02 22:40:02+00:00,1580683202,12.821,20811.66,16.66,17.63,,,,,11.81,123.88,67.797,0.94963,,,,
2020-02-02 23:00:01+00:00,1580684401,13.097,23462.83,18.86,19.74,,,,,12.72,135.98,65.219,0.8149,,,,
2020-02-02 23:20:02+00:00,1580685602,13.338,21489.38,17.02,17.97,,,,,12.54,133.27,57.998,0.81236,,,,
2020-02-02 23:40:02+00:00,1580686802,13.47,21382.42,16.87,17.82,,,,,12.23,130.2,59.634,0.83531,,,,
2020-02-03 00:00:02+00:00,1580688002,13.538,19983.18,15.64,16.63,,,,,14.14,149.68,57.147,0.70184,,,,
2020-02-03 00:20:02+00:00,1580689202,13.504,21988.76,17.38,18.31,,,,,13.88,148.37,64.408,0.90213,,,,
2020-02-03 00:40:02+00:00,1580690402,13.699,20830.73,16.3,17.27,,,,,14.33,152.82,67.928,0.95141,,,,
2020-02-03 01:00:01+00:00,1580691601,13.677,19983.21,15.59,16.57,,,,,15.05,159.68,63.791,0.89351,,,,
2020-02-03 01:20:02+00:00,1580692802,13.303,19889.33,15.66,16.65,,,,,14.88,156.73,72.307,1.0128,,,,
2020-02-03 01:40:01+00:00,1580694001,13.19,20406.5,16.15,17.13,,,,,14.62,154.09,67.495,0.94537,,,,
2020-02-03 02:00:02+00:00,1580695202,13.072,20517.79,16.3,17.27,,,,,14.47,152.25,67.858,0.95046,,,,
2020-02-03 02:20:02+00:00,1580696402,12.843,18427.15,14.58,15.6,,,,,14.56,150.77,68.584,0.96063,,,,
2020-02-03 02:40:02+00:00,1580697602,12.753,18744.72,14.89,15.9,,,,,14.19,146.93,52.454,0.5375,,,,
2020-02-03 03:00:02+00:00,1580698802,12.667,19175.08,15.3,16.3,,,,,12.99,134.63,67.609,0.94699,,,,
2020-02-03 03:20:01+00:00,1580700001,12.656,19170.74,15.3,16.31,,,,,13.54,140.31,57.923,0.71269,,,,
2020-02-03 03:40:02+00:00,1580701202,12.362,19342.52,15.57,16.57,,,,,12.74,131.34,70.293,0.98459,,,,
2020-02-03 04:00:01+00:00,1580702401,11.378,18738.32,15.44,16.46,,,,,12.06,121.64,93.244,1.30604,,,,
2020-02-03 04:20:01+00:00,1580703601,11.338,19296.27,15.96,16.97,,,,,11.05,111.75,132.816,1.86032,,,,
2020-02-03 04:40:02+00:00,1580704802,11.697,18530.31,15.13,16.15,,,,,11.67,118.26,111.555,1.56255,,,,
2020-02-03 05:00:01+00:00,1580706001,11.132,18108.85,14.98,16.01,,,,,10.46,104.64,135.752,1.80285,,,,
2020-02-03 05:20:01+00:00,1580707201,11.355,18898.82,15.6,16.61,,,,,10.74,108.35,156.927,2.19802,,,,
2020-02-03 05:40:02+00:00,1580708402,11.251,18433.97,15.22,16.25,,,,,10.5,105.45,163.699,2.29287,,,,
2020-02-03 06:00:02+00:00,1580709602,11.059,18430.09,15.3,16.33,,,,,9.83,98.33,189.734,2.65754,,,,
2020-02-03 06:20:02+00:00,1580710802,,,,,,,,,,,170.296,2.38528,,,,
2020-02-03 06:40:02+00:00,1580712002,11.071,18497.52,15.35,16.38,,,,,10.64,106.5,149.365,2.09212,,,,
2020-02-03 07:00:01+00:00,1580713201,11.05,19166.43,15.97,16.98,,,,,10.47,105.19,134.905,1.88957,,,,
2020-02-03 07:20:01+00:00,1580714401,10.998,18629.23,15.5,16.53,,,,,10.75,107.55,123.856,1.73485,,,,
2020-02-03 07:40:02+00:00,1580715602,10.723,18970.26,15.93,16.95,,,,,9.42,93.88,129.126,1.80865,,,,
2020-02-03 08:00:02+00:00,1580716802,10.608,18381.87,15.44,16.48,,,,,10.14,100.54,158.684,2.22264,,,,
2020-02-03 08:20:02+00:00,1580718002,10.665,19139.27,16.11,17.13,,,,,10.25,102.19,145.848,2.04286,,,,
2020-02-03 08:40:01+00:00,1580719201,10.657,20220.02,17.11,18.1,,,,,10.34,103.74,99.609,1.19799,,,,
2020-02-03 09:00:02+00:00,1580720402,10.574,20627.88,17.53,18.51,,,,,10.17,102.1,128.016,1.79308,,,,
2020-02-03 09:20:01+00:00,1580721601,10.496,20057.2,17.04,18.03,,,,,10.06,100.47,127.222,1.78197,,,,
2020-02-03 09:40:02+00:00,1580722802,10.386,20554.83,17.55,18.53,,,,,10.12,101.14,121.84,1.7066,,,,
2020-02-03 10:00:01+00:00,1580724001,10.357,20850.16,17.84,18.81,,,,,9.99,99.96,125.095,1.75215,,,,
2020-02-03 10:20:01+00:00,1580725201,10.245,20606.95,17.67,18.65,,,,,9.69,96.66,126.348,1.76975,,,,
2020-02-03 10:40:01+00:00,1580726401,10.203,20564.11,17.65,18.63,,,,,9.67,96.32,131.491,1.84178,,,,
2020-02-03 11:00:02+00:00,1580727602,10.133,20265.73,17.4,18.4,,,,,9.82,97.49,131.15,1.83695,,,,
2020-02-03 11:20:01+00:00,1580728801,9.971,21636.02,18.77,19.73,,,,,9.35,93.34,123.963,1.73631,,,,
2020-02-03 11:40:02+00:00,1580730002,10.089,20689.75,17.82,18.8,,,,,7.54,75,125.167,1.75318,,,,
2020-02-03 12:00:02+00:00,1580731202,9.907,20054.92,17.31,18.32,,,,,9.32,92.06,128.372,1.79805,,,,
2020-02-03 12:20:02+00:00,1580732402,9.924,20619.42,17.84,18.82,,,,,9.17,90.87,126.779,1.77576,,,,
2020-02-03 12:40:02+00:00,1580733602,9.858,21052.83,18.28,19.25,,,,,9.31,92.43,129.257,1.81046,,,,
2020-02-03 13:00:02+00:00,1580734802,9.781,21804.12,19.03,19.98,,,,,8.94,88.98,124.824,1.7484,,,,
2020-02-03 13:20:01+00:00,1580736001,9.745,20164.55,17.49,18.5,,,,,9.36,92.15,122.211,1.71178,,,,
2020-02-03 13:40:02+00:00,1580737202,9.54,21535.6,18.9,19.86,,,,,9.32,92.21,123.833,1.7345,,,,
2020-02-03 14:00:02+00:00,1580738402,9.155,19097.94,16.76,17.8,,,,,9.64,93.26,126.943,1.77806,,,,
2020-02-03 14:20:02+00:00,1580739602,9.194,19694.46,17.31,18.34,,,,,9.44,91.67,124.085,1.73801,,,,
2020-02-03 14:40:02+00:00,1580740802,9.629,19771.79,17.18,18.19,,,,,7.54,73.91,146.222,2.0481,,,,
2020-02-03 15:00:02+00:00,1580742002,9.729,19165.55,16.56,17.59,,,,,7.49,73.28,187.247,2.6227,,,,
2020-02-03 15:20:01+00:00,1580743201,9.686,21121.83,18.43,19.41,,,,,7.67,75.94,202.411,2.83511,,,,
2020-02-03 15:40:02+00:00,1580744402,8.932,19685.62,17.43,18.46,,,,,8.39,81.07,200.444,2.80755,,,,
2020-02-03 16:00:02+00:00,1580745602,9.561,19603.45,17.05,18.07,,,,,8.12,79.39,179.576,2.51526,,,,
2020-02-03 16:20:01+00:00,1580746801,9.371,18636.08,16.22,17.27,,,,,7.08,68.56,180.163,2.52349,,,,
2020-02-03 16:40:02+00:00,1580748002,8.207,17649.06,15.8,16.89,,,,,7.93,74.48,180.957,2.53461,,,,
2020-02-03 17:00:02+00:00,1580749202,9.05,18515.93,16.25,17.31,,,,,8,76.94,174.584,2.44536,,,,
2020-02-03 17:20:01+00:00,1580750401,9.659,19270.11,16.69,17.72,,,,,7.11,69.53,158.662,2.22234,,,,
2020-02-03 17:40:01+00:00,1580751601,9.347,17742.54,15.39,16.45,,,,,7.17,69.03,156.829,2.19664,,,,
2020-02-03 18:00:02+00:00,1580752802,10.034,20107.03,17.3,18.3,,,,,5.25,52,94.516,1.22523,,,,
2020-02-03 18:20:02+00:00,1580754002,9.626,21817.27,19.13,20.08,,,,,5.12,50.82,41.51,0.28563,,,,
2020-02-03 18:40:02+00:00,1580755202,8.537,18244.25,16.22,17.3,,,,,7.79,73.97,,,,,,
2020-02-03 19:00:01+00:00,1580756401,7.104,15665.96,14.32,15.47,,,,,9.61,87.16,2.063,-0.85849,,,,
2020-02-03 19:20:02+00:00,1580757602,6.729,16450.74,15.27,16.42,,,,,10.37,93.82,,,,,,
2020-02-03 19:40:02+00:00,1580758802,7.722,17433.4,15.8,16.91,,,,,9.86,91.66,148.788,2.08401,,,,
2020-02-03 20:00:02+00:00,1580760002,7.435,18848.51,17.35,18.44,,,,,9.74,90.87,,,,,,
2020-02-03 20:20:01+00:00,1580761201,6.838,15712.98,14.48,15.64,,,,,10.57,95.38,,,,,,
2020-02-03 20:40:02+00:00,1580762402,8.102,15912.01,14.16,15.27,,,,,10.91,101.22,100.23,1.40391,,,,
2020-02-03 21:00:02+00:00,1580763602,8.648,17159.06,15.13,16.22,,,,,11.29,106.76,86.693,1.21428,,,,
2020-02-03 21:20:01+00:00,1580764801,9.176,16524.21,14.31,15.39,,,,,11.81,112.44,88.558,1.24039,,,,
2020-02-03 21:40:02+00:00,1580766002,9.517,17281.28,14.88,15.95,,,,,12.09,116.48,89.634,1.25549,,,,
2020-02-03 22:00:01+00:00,1580767201,9.975,17559.68,14.95,16.01,,,,,12.23,119.14,67.7,0.84967,,,,
2020-02-03 22:20:02+00:00,1580768402,10.152,18136.09,15.41,16.45,,,,,12.2,119.62,103.81,1.45406,,,,
2020-02-03 22:40:01+00:00,1580769601,10.549,19099.28,16.13,17.15,,,,,12.78,127.03,94.147,1.31872,,,,
2020-02-03 23:00:01+00:00,1580770801,10.838,20551.63,17.33,18.31,,,,,12.92,130.26,99.767,1.3974,,,,
2020-02-03 23:20:01+00:00,1580772001,11.112,21647.2,18.21,19.15,,,,,13.29,135.55,103.526,1.45006,,,,
2020-02-03 23:40:02+00:00,1580773202,11.221,21090.73,17.65,18.61,,,,,13.87,141.35,142.606,1.99746,,,,
2020-02-04 00:00:02+00:00,1580774402,11.45,21494.66,17.9,18.85,,,,,14.06,144.32,69.563,0.87576,,,,
2020-02-04 00:20:01+00:00,1580775601,11.651,22510.14,18.73,19.64,,,,,14.42,149.38,151.836,2.12672,,,,
2020-02-04 00:40:02+00:00,1580776802,11.791,22264.62,18.44,19.36,,,,,14.57,151.1,145.183,2.03355,,,,
2020-02-04 01:00:02+00:00,1580778002,11.865,21608.82,17.81,18.75,,,,,14.4,148.94,,,,,,
2020-02-04 01:20:02+00:00,1580779202,12.034,20320.89,16.58,17.56,,,,,14.77,152.26,,,,,,
2020-02-04 01:40:02+00:00,1580780402,11.899,18074.6,14.64,15.67,,,,,15.71,159.5,125.126,1.75259,,,,
2020-02-04 02:00:01+00:00,1580781601,11.796,16986.8,13.72,14.77,,,,,15.75,158.6,89.782,1.25754,,,,
2020-02-04 02:20:01+00:00,1580782801,11.762,16794.57,13.57,14.61,,,,,15.54,156.2,124.339,1.74159,,,,
2020-02-04 02:40:02+00:00,1580784002,11.664,17760.4,14.46,15.49,,,,,15.61,157.45,106.923,1.49766,,,,
2020-02-04 03:00:01+00:00,1580785201,11.616,17935.67,14.63,15.66,,,,,15.33,154.57,124.523,1.74414,,,,
2020-02-04 03:20:01+00:00,1580786401,11.444,19207.25,15.84,16.85,,,,,15.38,155.68,88.499,1.23959,,,,
2020-02-04 03:40:02+00:00,1580787602,11.446,18235.4,14.97,15.99,,,,,14.96,150.71,145.076,2.03205,,,,
2020-02-04 04:00:02+00:00,1580788802,11.439,18018.95,14.77,15.81,,,,,15.15,152.36,98.175,1.3751,,,,
2020-02-04 04:20:02+00:00,1580790002,11.339,16834.74,13.76,14.81,,,,,14.61,145.65,59.808,0.73911,,,,
2020-02-04 04:40:01+00:00,1580791201,11.293,16255.53,13.26,14.31,,,,,15.29,151.76,96.459,1.35108,,,,
2020-02-04 05:00:01+00:00,1580792401,11.228,16617.91,13.61,14.66,,,,,14.9,148.1,127.413,1.78462,,,,
2020-02-04 05:20:02+00:00,1580793602,11.074,17060.81,14.06,15.11,,,,,14.44,143.4,109.634,1.5356,,,,
2020-02-04 05:40:02+00:00,1580794802,10.858,16643.7,13.77,14.82,,,,,14.55,143.57,60.188,0.84302,,,,
2020-02-04 06:00:01+00:00,1580796001,10.71,16478.36,13.67,14.73,,,,,13.43,131.99,100.477,1.40734,,,,
2020-02-04 06:20:02+00:00,1580797202,10.62,16850.04,14.04,15.1,,,,,14.65,144.01,83.079,1.16367,,,,
2020-02-04 06:40:02+00:00,1580798402,10.902,17037.19,14.1,15.15,,,,,14.48,143.25,85.827,1.20213,,,,
2020-02-04 07:00:01+00:00,1580799601,11.402,16883.76,13.78,14.82,,,,,14.09,140.7,128.04,1.79345,,,,
2020-02-04 07:20:01+00:00,1580800801,11.169,16870.21,13.85,14.9,,,,,14.68,145.88,109.332,1.53137,,,,
2020-02-04 07:40:01+00:00,1580802001,10.754,16760.23,13.91,14.97,,,,,14.41,141.91,104.99,1.47054,,,,
2020-02-04 08:00:02+00:00,1580803202,10.95,16972.56,14.03,15.08,,,,,14.45,143.05,105.714,1.48071,,,,
2020-02-04 08:20:02+00:00,1580804402,10.566,17007.29,14.21,15.26,,,,,14.43,141.82,87.105,1.22003,,,,
2020-02-04 08:40:02+00:00,1580805602,9.807,16310.56,13.86,14.94,,,,,14.58,140.51,67.127,0.94024,,,,
2020-02-04 09:00:01+00:00,1580806801,9.797,16708.91,14.23,15.31,,,,,13.6,131.37,,,,,,
2020-02-04 09:20:02+00:00,1580808002,10.595,16314.94,13.57,14.63,,,,,13.35,130.77,101.226,1.41786,,,,
2020-02-04 09:40:02+00:00,1580809202,11.209,17626.02,14.51,15.55,,,,,11.87,118.53,116.734,1.63506,,,,
2020-02-04 10:00:02+00:00,1580810402,8.637,16251.15,14.27,15.37,,,,,12.06,113.43,,,,,,
2020-02-04 10:20:02+00:00,1580811602,10.909,18662.69,15.57,16.6,,,,,10.15,101.42,127.834,1.79054,,,,
2020-02-04 10:40:01+00:00,1580812801,11.134,18421.62,15.26,16.29,,,,,9.38,93.94,89.272,1.15181,,,,